CW2334 Weather Reports


time (UTC)temp
C
wind
direction
speed
KPH
gust
KPH
rain 1hr
cm
rain 24hr
cm
rain mn
cm
humidity
%
barometer
mb
20260508052310 7 225 0.0 0.0 0.00 0.00 0.00 78 1012.1
20260508045309 6 225 0.0 0.0 0.00 0.00 0.00 79 1012.1
20260508042309 6 225 0.0 1.6 0.00 0.00 0.00 79 1012.1
20260508035339 5 292 0.0 0.0 0.00 0.00 0.00 83 1011.9
20260508025338 6 292 0.0 0.0 0.00 0.00 0.00 78 1012.0
20260508022337 6 292 0.0 0.0 0.00 0.00 0.00 74 1012.0
20260508012307 8 292 0.0 0.0 0.00 0.00 0.00 65 1011.7
20260508005336 10 292 0.0 0.0 0.00 0.00 0.00 57 1011.8
20260508002336 10 292 0.0 8.0 0.00 0.00 0.00 52 1011.5
20260507235335 11 282 0.0 8.0 0.00 0.00 0.00 49 1011.3
20260507232335 11 311 0.0 8.0 0.00 0.00 0.00 50 1011.2
20260507225334 11 192 0.0 14.5 0.00 0.00 0.00 46 1011.3
20260507222334 12 358 1.6 16.1 0.00 0.00 0.00 45 1011.4
20260507215334 12 323 8.0 14.5 0.00 0.00 0.00 52 1011.1
20260507212334 11 263 0.0 14.5 0.00 0.00 0.00 56 1010.8
20260507195333 12 340 6.4 12.9 0.00 0.00 0.00 55 1010.6
20260507192331 12 331 0.0 12.9 0.00 0.00 0.00 54 1010.9
20260507185331 12 342 11.3 14.5 0.00 0.00 0.00 50 1010.9
20260507172330 12 293 6.4 12.9 0.00 0.00 0.00 52 1011.2
20260507165330 13 15 3.2 11.3 0.00 0.00 0.00 52 1011.3
20260507162329 12 328 6.4 12.9 0.00 0.00 0.00 53 1011.3
20260507155328 12 59 0.0 8.0 0.00 0.00 0.00 56 1011.4
20260507152327 12 82 0.0 9.7 0.00 0.00 0.00 55 1011.4
20260507132326 10 139 0.0 4.8 0.00 0.00 0.00 73 1012.1
20260507122325 7 82 0.0 6.4 0.00 0.00 0.00 86 1011.9
20260507115325 6 53 0.0 0.0 0.00 0.00 0.00 88 1011.6
20260507112324 6 53 0.0 0.0 0.00 0.00 0.00 88 1011.6
20260507105323 5 53 0.0 0.0 0.00 0.00 0.00 87 1011.4
20260507102323 5 53 0.0 0.0 0.00 0.00 0.00 88 1011.2
20260507095323 5 53 0.0 0.0 0.00 0.00 0.00 91 1011.2
20260507092322 5 53 0.0 0.0 0.00 0.08 0.00 91 1011.3
20260507085322 5 53 0.0 0.0 0.00 0.13 0.00 91 1011.4
20260507075321 5 53 0.0 0.0 0.00 0.33 0.00 91 1011.5
20260507072321 5 53 0.0 0.0 0.00 0.41 0.00 90 1011.6
20260507065321 5 53 0.0 0.0 0.00 0.43 0.00 90 1011.8
20260507062321 5 53 0.0 0.0 0.00 0.46 0.00 89 1012.0
20260507055319 5 53 0.0 0.0 0.00 0.53 0.00 88 1012.3